TimeMDT,TemperatureF,Dew PointF,Humidity,Sea Level PressureIn,VisibilityMPH,Wind Direction,Wind SpeedMPH,Gust SpeedMPH,PrecipitationIn,Events,Conditions,WindDirDegrees,DateUTC
12:53 AM,21.9,7.0,53,30.31,10.0,Calm,Calm,-,N/A,,Clear,0,2013-04-18 06:53:00
1:53 AM,21.9,8.1,55,30.30,10.0,ENE,6.9,-,N/A,,Clear,60,2013-04-18 07:53:00
2:53 AM,19.9,8.1,60,30.31,10.0,NNE,4.6,-,N/A,,Clear,20,2013-04-18 08:53:00
3:53 AM,19.0,8.1,62,30.31,10.0,North,3.5,-,N/A,,Clear,360,2013-04-18 09:53:00
4:53 AM,16.0,8.1,71,30.33,10.0,NE,4.6,-,N/A,,Clear,40,2013-04-18 10:53:00
5:53 AM,15.1,8.1,74,30.34,10.0,ENE,3.5,-,N/A,,Clear,70,2013-04-18 11:53:00
6:53 AM,15.1,8.1,74,30.36,10.0,Calm,Calm,-,N/A,,Clear,0,2013-04-18 12:53:00
7:53 AM,19.0,10.0,68,30.36,10.0,NNE,3.5,-,N/A,,Clear,30,2013-04-18 13:53:00
8:53 AM,24.1,10.9,57,30.36,10.0,Calm,Calm,-,N/A,,Clear,0,2013-04-18 14:53:00
9:53 AM,30.0,8.1,40,30.35,10.0,Calm,Calm,-,N/A,,Clear,0,2013-04-18 15:53:00
10:53 AM,35.1,8.1,33,30.35,10.0,Variable,5.8,-,N/A,,Clear,0,2013-04-18 16:53:00
11:53 AM,37.0,8.1,30,30.33,10.0,Calm,Calm,-,N/A,,Clear,0,2013-04-18 17:53:00
12:53 PM,41.0,8.1,26,30.32,10.0,West,11.5,-,N/A,,Clear,260,2013-04-18 18:53:00
1:53 PM,43.0,7.0,23,30.29,10.0,West,10.4,18.4,N/A,,Clear,270,2013-04-18 19:53:00
2:53 PM,46.0,9.0,22,30.28,10.0,Calm,Calm,-,N/A,,Clear,0,2013-04-18 20:53:00
3:53 PM,46.9,8.1,21,30.26,10.0,NW,6.9,-,N/A,,Clear,310,2013-04-18 21:53:00
4:53 PM,48.0,9.0,21,30.25,10.0,West,9.2,17.3,N/A,,Clear,280,2013-04-18 22:53:00
5:53 PM,48.9,9.0,20,30.24,10.0,WSW,9.2,18.4,N/A,,Clear,250,2013-04-18 23:53:00
6:53 PM,48.0,8.1,20,30.24,10.0,SSW,5.8,-,N/A,,Clear,200,2013-04-19 00:53:00
7:53 PM,46.0,9.0,22,30.22,10.0,South,8.1,-,N/A,,Clear,180,2013-04-19 01:53:00
8:53 PM,42.1,12.9,31,30.23,10.0,South,10.4,-,N/A,,Clear,190,2013-04-19 02:53:00
9:53 PM,39.0,15.1,38,30.22,10.0,South,10.4,-,N/A,,Clear,180,2013-04-19 03:53:00
10:53 PM,39.0,14.0,36,30.21,10.0,South,10.4,-,N/A,,Clear,190,2013-04-19 04:53:00
11:53 PM,37.0,18.0,46,30.20,10.0,South,10.4,-,N/A,,Clear,190,2013-04-19 05:53:00